Time,TemperatureF,DewpointF,PressureIn,WindDirection,WindDirectionDegrees,WindSpeedMPH,WindSpeedGustMPH,Humidity,HourlyPrecipIn,Conditions,Clouds,dailyrainin,SolarRadiationWatts/m^2,SoftwareType,DateUTC
2013-01-30 00:01:00,16.0,14.0,-100.00,NE,54,0.0,0.0,93,0.00,,,0.00,0.000000,,2013-01-30 07:01:00,
2013-01-30 00:11:00,16.0,14.0,-100.00,NE,54,0.0,0.0,93,0.00,,,0.00,0.000000,,2013-01-30 07:11:00,
2013-01-30 00:21:00,16.0,14.0,-100.00,NE,54,0.0,0.0,93,0.00,,,0.00,0.000000,,2013-01-30 07:21:00,
2013-01-30 00:42:00,16.0,14.0,-100.00,ENE,67,0.0,3.0,92,0.00,,,0.00,0.000000,,2013-01-30 07:42:00,
2013-01-30 00:52:00,16.0,14.0,-100.00,ENE,67,0.0,3.0,92,0.00,,,0.00,0.000000,,2013-01-30 07:52:00,
2013-01-30 01:01:00,16.0,14.0,-100.00,ENE,67,0.0,3.0,92,0.00,,,0.00,0.000000,,2013-01-30 08:01:00,
2013-01-30 01:11:00,16.0,14.0,-100.00,ENE,67,0.0,3.0,92,0.00,,,0.00,0.000000,,2013-01-30 08:11:00,
2013-01-30 01:21:00,16.0,14.0,-100.00,ENE,67,0.0,3.0,92,0.00,,,0.00,0.000000,,2013-01-30 08:21:00,
2013-01-30 01:42:00,17.0,15.0,-100.00,ESE,109,0.0,5.0,92,0.00,,,0.00,0.000000,,2013-01-30 08:42:00,
2013-01-30 01:52:00,17.0,15.0,-100.00,ESE,109,0.0,5.0,92,0.00,,,0.00,0.000000,,2013-01-30 08:52:00,
2013-01-30 02:01:00,17.0,15.0,-100.00,ESE,109,0.0,5.0,92,0.00,,,0.00,0.000000,,2013-01-30 09:01:00,
2013-01-30 02:11:00,17.0,15.0,-100.00,ESE,109,0.0,5.0,92,0.00,,,0.00,0.000000,,2013-01-30 09:11:00,
2013-01-30 02:21:00,17.0,15.0,-100.00,ESE,109,0.0,5.0,92,0.00,,,0.00,0.000000,,2013-01-30 09:21:00,
2013-01-30 02:52:00,17.0,15.0,-100.00,East,90,0.0,4.0,93,0.00,,,0.00,0.000000,,2013-01-30 09:52:00,
2013-01-30 03:01:00,17.0,15.0,-100.00,East,90,0.0,4.0,93,0.00,,,0.00,0.000000,,2013-01-30 10:01:00,
2013-01-30 03:11:00,17.0,15.0,-100.00,East,90,0.0,4.0,93,0.00,,,0.00,0.000000,,2013-01-30 10:11:00,
2013-01-30 03:21:00,17.0,15.0,-100.00,East,90,0.0,4.0,93,0.00,,,0.00,0.000000,,2013-01-30 10:21:00,
2013-01-30 03:42:00,17.0,15.0,-100.00,East,85,2.0,4.0,93,0.00,,,-99.99,0.000000,,2013-01-30 10:42:00,
2013-01-30 03:52:00,17.0,15.0,-100.00,East,85,2.0,4.0,93,0.00,,,-99.99,0.000000,,2013-01-30 10:52:00,
2013-01-30 04:02:00,17.0,15.0,-100.00,East,85,2.0,4.0,93,0.00,,,-99.99,0.000000,,2013-01-30 11:02:00,
2013-01-30 04:11:00,17.0,15.0,-100.00,East,85,2.0,4.0,93,0.00,,,-99.99,0.000000,,2013-01-30 11:11:00,
2013-01-30 04:21:00,17.0,15.0,-100.00,East,85,2.0,4.0,93,0.00,,,-99.99,0.000000,,2013-01-30 11:21:00,
2013-01-30 04:42:00,18.0,16.0,-100.00,East,89,0.0,4.0,93,0.00,,,0.00,0.000000,,2013-01-30 11:42:00,
2013-01-30 04:52:00,18.0,16.0,-100.00,East,89,0.0,4.0,93,0.00,,,0.00,0.000000,,2013-01-30 11:52:00,
2013-01-30 05:02:00,18.0,16.0,-100.00,East,89,0.0,4.0,93,0.00,,,0.00,0.000000,,2013-01-30 12:02:00,
2013-01-30 05:12:00,18.0,16.0,-100.00,East,89,0.0,4.0,93,0.00,,,0.00,0.000000,,2013-01-30 12:12:00,
2013-01-30 05:21:00,18.0,16.0,-100.00,East,89,0.0,4.0,93,0.00,,,0.00,0.000000,,2013-01-30 12:21:00,
2013-01-30 05:43:00,19.0,17.0,-100.00,ENE,73,0.0,0.0,93,0.00,,,0.00,0.000000,,2013-01-30 12:43:00,
2013-01-30 06:02:00,19.0,17.0,-100.00,ENE,73,0.0,0.0,93,0.00,,,0.00,0.000000,,2013-01-30 13:02:00,
2013-01-30 06:12:00,19.0,17.0,-100.00,ENE,73,0.0,0.0,93,0.00,,,0.00,0.000000,,2013-01-30 13:12:00,
2013-01-30 06:22:00,19.0,17.0,-100.00,ENE,73,0.0,0.0,93,0.00,,,0.00,0.000000,,2013-01-30 13:22:00,
2013-01-30 06:43:00,19.0,17.0,-100.00,East,79,1.0,5.0,93,0.00,,,0.00,0.000000,,2013-01-30 13:43:00,
2013-01-30 06:53:00,19.0,17.0,-100.00,East,79,1.0,5.0,93,0.00,,,0.00,0.000000,,2013-01-30 13:53:00,
2013-01-30 07:02:00,19.0,17.0,-100.00,East,79,1.0,5.0,93,0.00,,,0.00,0.000000,,2013-01-30 14:02:00,
2013-01-30 07:11:00,19.0,17.0,-100.00,East,79,1.0,5.0,93,0.00,,,0.00,0.000000,,2013-01-30 14:11:00,
2013-01-30 07:21:00,19.0,17.0,-100.00,East,79,1.0,5.0,93,0.00,,,0.00,0.000000,,2013-01-30 14:21:00,
2013-01-30 07:43:00,19.0,17.0,-100.00,SE,146,4.0,7.0,93,0.00,,,0.00,0.000000,,2013-01-30 14:43:00,
2013-01-30 07:53:00,19.0,17.0,-100.00,SE,146,4.0,7.0,93,0.00,,,0.00,0.000000,,2013-01-30 14:53:00,
2013-01-30 08:03:00,19.0,17.0,-100.00,SE,146,4.0,7.0,93,0.00,,,0.00,0.000000,,2013-01-30 15:03:00,
2013-01-30 08:11:00,19.0,17.0,-100.00,SE,146,4.0,7.0,93,0.00,,,0.00,0.000000,,2013-01-30 15:11:00,
2013-01-30 08:22:00,19.0,17.0,-100.00,SE,146,4.0,7.0,93,0.00,,,0.00,0.000000,,2013-01-30 15:22:00,
2013-01-30 08:43:00,18.0,16.0,-100.00,ENE,67,0.0,7.0,93,0.00,,,0.00,4.000000,,2013-01-30 15:43:00,
2013-01-30 08:53:00,18.0,16.0,-100.00,ENE,67,0.0,7.0,93,0.00,,,0.00,4.000000,,2013-01-30 15:53:00,
2013-01-30 09:03:00,18.0,16.0,-100.00,ENE,67,0.0,7.0,93,0.00,,,0.00,4.000000,,2013-01-30 16:03:00,
2013-01-30 09:12:00,18.0,16.0,-100.00,ENE,67,0.0,7.0,93,0.00,,,0.00,4.000000,,2013-01-30 16:12:00,
2013-01-30 09:22:00,18.0,16.0,-100.00,ENE,67,0.0,7.0,93,0.00,,,0.00,4.000000,,2013-01-30 16:22:00,
2013-01-30 09:42:00,21.0,19.0,-100.00,South,190,0.0,3.0,93,0.00,,,0.00,65.000000,,2013-01-30 16:42:00,
2013-01-30 09:52:00,21.0,19.0,-100.00,South,190,0.0,3.0,93,0.00,,,0.00,65.000000,,2013-01-30 16:52:00,
2013-01-30 10:02:00,21.0,19.0,-100.00,South,190,0.0,3.0,93,0.00,,,0.00,65.000000,,2013-01-30 17:02:00,
2013-01-30 10:12:00,21.0,19.0,-100.00,South,190,0.0,3.0,93,0.00,,,0.00,65.000000,,2013-01-30 17:12:00,
2013-01-30 10:22:00,21.0,19.0,-100.00,South,190,0.0,3.0,93,0.00,,,0.00,65.000000,,2013-01-30 17:22:00,
2013-01-30 10:53:00,22.0,20.0,-100.00,ESE,115,0.0,3.0,91,0.00,,,0.00,185.000000,,2013-01-30 17:53:00,
2013-01-30 11:02:00,22.0,20.0,-100.00,ESE,115,0.0,3.0,91,0.00,,,0.00,185.000000,,2013-01-30 18:02:00,
2013-01-30 11:12:00,22.0,20.0,-100.00,ESE,115,0.0,3.0,91,0.00,,,0.00,185.000000,,2013-01-30 18:12:00,
2013-01-30 11:22:00,22.0,20.0,-100.00,ESE,115,0.0,3.0,91,0.00,,,0.00,185.000000,,2013-01-30 18:22:00,
2013-01-30 11:53:00,25.0,22.0,-100.00,SE,135,2.0,6.0,88,0.00,,,0.00,300.000000,,2013-01-30 18:53:00,
2013-01-30 12:02:00,25.0,22.0,-100.00,SE,135,2.0,6.0,88,0.00,,,0.00,300.000000,,2013-01-30 19:02:00,
2013-01-30 12:12:00,25.0,22.0,-100.00,SE,135,2.0,6.0,88,0.00,,,0.00,300.000000,,2013-01-30 19:12:00,
2013-01-30 12:21:00,25.0,22.0,-100.00,SE,135,2.0,6.0,88,0.00,,,0.00,300.000000,,2013-01-30 19:21:00,
2013-01-30 12:43:00,26.0,23.0,-100.00,WSW,245,0.0,6.0,87,0.00,,,0.00,285.000000,,2013-01-30 19:43:00,
2013-01-30 12:53:00,26.0,23.0,-100.00,WSW,245,0.0,6.0,87,0.00,,,0.00,285.000000,,2013-01-30 19:53:00,
2013-01-30 13:03:00,26.0,23.0,-100.00,WSW,245,0.0,6.0,87,0.00,,,0.00,285.000000,,2013-01-30 20:03:00,
2013-01-30 13:11:00,26.0,23.0,-100.00,WSW,245,0.0,6.0,87,0.00,,,0.00,285.000000,,2013-01-30 20:11:00,
2013-01-30 13:21:00,26.0,23.0,-100.00,WSW,245,0.0,6.0,87,0.00,,,0.00,285.000000,,2013-01-30 20:21:00,
2013-01-30 13:42:00,29.0,23.0,-100.00,SW,234,0.0,6.0,77,0.00,,,0.00,340.000000,,2013-01-30 20:42:00,
2013-01-30 13:53:00,29.0,23.0,-100.00,SW,234,0.0,6.0,77,0.00,,,0.00,340.000000,,2013-01-30 20:53:00,
2013-01-30 14:52:00,33.0,21.0,-100.00,WSW,253,0.0,4.0,61,-99.99,,,0.00,450.000000,,2013-01-30 21:52:00,
2013-01-30 15:42:00,31.0,22.0,-100.00,East,101,0.0,6.0,68,-99.99,,,0.00,406.000000,,2013-01-30 22:42:00,
2013-01-30 15:53:00,31.0,22.0,-100.00,East,101,0.0,6.0,68,-99.99,,,0.00,406.000000,,2013-01-30 22:53:00,
2013-01-30 16:02:00,31.0,22.0,-100.00,East,101,0.0,6.0,68,-99.99,,,0.00,406.000000,,2013-01-30 23:02:00,
2013-01-30 16:11:00,31.0,22.0,-100.00,East,101,0.0,6.0,68,-99.99,,,0.00,406.000000,,2013-01-30 23:11:00,
2013-01-30 16:21:00,31.0,22.0,-100.00,East,101,0.0,6.0,68,-99.99,,,0.00,406.000000,,2013-01-30 23:21:00,
2013-01-30 16:42:00,32.0,23.0,-100.00,SW,232,1.0,5.0,70,0.00,,,-99.99,256.000000,,2013-01-30 23:42:00,
2013-01-30 16:52:00,32.0,23.0,-100.00,SW,232,1.0,5.0,70,0.00,,,-99.99,256.000000,,2013-01-30 23:52:00,
2013-01-30 17:01:00,32.0,23.0,-100.00,SW,232,1.0,5.0,70,0.00,,,-99.99,256.000000,,2013-01-31 00:01:00,
2013-01-30 17:11:00,32.0,23.0,-100.00,SW,232,1.0,5.0,70,0.00,,,-99.99,256.000000,,2013-01-31 00:11:00,
2013-01-30 17:21:00,32.0,23.0,-100.00,SW,232,1.0,5.0,70,0.00,,,-99.99,256.000000,,2013-01-31 00:21:00,
2013-01-30 17:42:00,23.0,18.0,-100.00,NNE,20,0.0,4.0,80,0.00,,,0.00,91.000000,,2013-01-31 00:42:00,
2013-01-30 17:53:00,23.0,18.0,-100.00,NNE,20,0.0,4.0,80,0.00,,,0.00,91.000000,,2013-01-31 00:53:00,
2013-01-30 18:02:00,23.0,18.0,-100.00,NNE,20,0.0,4.0,80,0.00,,,0.00,91.000000,,2013-01-31 01:02:00,
2013-01-30 18:11:00,23.0,18.0,-100.00,NNE,20,0.0,4.0,80,0.00,,,0.00,91.000000,,2013-01-31 01:11:00,
2013-01-30 18:21:00,23.0,18.0,-100.00,NNE,20,0.0,4.0,80,0.00,,,0.00,91.000000,,2013-01-31 01:21:00,
2013-01-30 18:42:00,16.0,14.0,-100.00,NNE,26,1.0,7.0,91,0.00,,,0.00,2.000000,,2013-01-31 01:42:00,
2013-01-30 18:52:00,16.0,14.0,-100.00,NNE,26,1.0,7.0,91,0.00,,,0.00,2.000000,,2013-01-31 01:52:00,
2013-01-30 20:02:00,17.0,15.0,-100.00,WNW,294,0.0,9.0,92,-99.99,,,0.00,0.000000,,2013-01-31 03:02:00,
2013-01-30 20:11:00,17.0,15.0,-100.00,WNW,294,0.0,9.0,92,-99.99,,,0.00,0.000000,,2013-01-31 03:11:00,
2013-01-30 20:21:00,17.0,15.0,-100.00,WNW,294,0.0,9.0,92,-99.99,,,0.00,0.000000,,2013-01-31 03:21:00,
2013-01-30 20:42:00,25.0,22.0,-100.00,NW,307,11.0,19.0,87,0.00,,,0.00,0.000000,,2013-01-31 03:42:00,
2013-01-30 20:52:00,25.0,22.0,-100.00,NW,307,11.0,19.0,87,0.00,,,0.00,0.000000,,2013-01-31 03:52:00,
2013-01-30 21:02:00,25.0,22.0,-100.00,NW,307,11.0,19.0,87,0.00,,,0.00,0.000000,,2013-01-31 04:02:00,
2013-01-30 21:11:00,25.0,22.0,-100.00,NW,307,11.0,19.0,87,0.00,,,0.00,0.000000,,2013-01-31 04:11:00,
2013-01-30 21:21:00,25.0,22.0,-100.00,NW,307,11.0,19.0,87,0.00,,,0.00,0.000000,,2013-01-31 04:21:00,
2013-01-30 21:42:00,21.0,16.0,-100.00,SSE,166,2.0,28.0,80,0.00,,,0.00,0.000000,,2013-01-31 04:42:00,
2013-01-30 21:52:00,21.0,16.0,-100.00,SSE,166,2.0,28.0,80,0.00,,,0.00,0.000000,,2013-01-31 04:52:00,
2013-01-30 22:03:00,21.0,16.0,-100.00,SSE,166,2.0,28.0,80,0.00,,,0.00,0.000000,,2013-01-31 05:03:00,
2013-01-30 22:11:00,21.0,16.0,-100.00,SSE,166,2.0,28.0,80,0.00,,,0.00,0.000000,,2013-01-31 05:11:00,
2013-01-30 22:21:00,21.0,16.0,-100.00,SSE,166,2.0,28.0,80,0.00,,,0.00,0.000000,,2013-01-31 05:21:00,